Simultaneous Nadir Overpasses (SNOs) Predictions

Prediction of SNOs between GOES-16 and METOP-B Satellite Orbit:

Table of predicted SNOs for the next 14.0 days since TLE Epoch: 9/9/2023
Index Date Time (GOES-16) GOES-16 Lat,Lon METOP-B Lat,Lon Distance(km) Time Diff (sec)
1 09/10/2023 02:41:59 0.04, -75.21 -0.73, -78.57 383.62 80
2 09/11/2023 02:23:59 0.04, -75.21 0.39, -73.57 186.41 80
3 09/12/2023 14:40:09 -0.04, -75.25 0.61, -78.14 329.84 80
4 09/13/2023 14:22:09 -0.04, -75.26 -0.51, -73.14 240.66 80
5 09/15/2023 02:38:27 0.04, -75.26 -0.53, -77.73 282.90 80
6 09/16/2023 02:20:26 0.04, -75.27 0.59, -72.74 288.08 80
7 09/17/2023 14:39:17 -0.04, -75.31 0.39, -77.30 226.78 80
8 09/18/2023 14:18:36 -0.04, -75.33 -0.73, -72.31 344.42 80
9 09/20/2023 02:34:54 0.04, -75.33 -0.30, -76.90 178.41 80
10 09/21/2023 02:16:54 0.04, -75.35 0.83, -71.91 392.85 80
11 09/22/2023 14:35:43 -0.03, -75.39 0.21, -76.46 121.76 80
